Date String (YYYY-MM-DD hh:mm:ss) UTC,Instrument flags,absolute air pressure of the measurement (hPa),sample flow rate (lpm),inlet stack bypass flow (lpm),air temperature of the measurement (°C),ambient temperature measured by the external sensor (°C),aerosol sample conditioner tube jacket temperature (°C),OPC LED temperature (°C),internal box temperature (°C),relative humidity of the measurement (%),span deviation,mass concentration of particles derived from Lorenz-Mie calculation of OPC scattering (μg/m³),mass concentration of particles derived from Lorenz-Mie calculation of OPC scattering (μg/m³),mass concentration of particles derived from Lorenz-Mie calculation of OPC scattering (μg/m³)
DateTimeUTC,F1_M11,P_M11,Q1_M11,Q2_M11,T1_M11,T2_M11,T3_M11,T4_M11,T5_M11,U1_M11,ZSPAN_M11,X2_M11,X0_M11,X1_M11
2023-09-21 22:00:00,SystemResetWarning,0827.4,4.98,000.00,027.9,025.8,000.0,036.1,029.4,18.5,0000.0,0003.73,0012.65,0002.73
2023-09-21 22:01:00,SystemResetWarning,0827.4,5.01,000.00,027.8,024.2,000.0,036.1,029.0,18.7,0000.0,0003.72,0012.97,0002.73
2023-09-21 22:02:00,SystemResetWarning,0827.3,5.02,000.00,027.7,024.1,000.0,036.0,028.9,18.8,0000.0,0003.72,0013.07,0002.74
2023-09-21 22:03:00,SystemResetWarning,0827.3,5.00,000.00,027.6,024.4,000.0,036.0,029.0,18.6,0000.0,0003.79,0013.09,0002.77
2023-09-21 22:04:00,SystemResetWarning,0827.4,5.00,000.00,027.6,024.8,000.0,036.0,029.1,18.6,0000.0,0003.76,0013.10,0002.77
2023-09-21 22:05:00,SystemResetWarning,0827.4,5.00,000.00,027.6,025.2,000.0,036.0,029.2,19.1,0000.0,0003.75,0013.39,0002.78
2023-09-21 22:06:00,SystemResetWarning,0827.4,4.99,000.00,027.6,025.6,000.0,036.0,029.3,18.8,0000.0,0003.75,0013.51,0002.78
2023-09-21 22:07:00,SystemResetWarning,0827.4,5.00,000.00,027.7,025.9,000.0,036.0,029.3,17.9,0000.0,0003.81,0013.75,0002.80
2023-09-21 22:08:00,SystemResetWarning,0827.4,5.00,000.00,027.7,026.2,000.0,036.0,029.4,18.0,0000.0,0003.80,0013.47,0002.79
2023-09-21 22:09:00,SystemResetWarning,0827.4,5.01,000.00,027.8,026.5,000.0,036.0,029.5,17.7,0000.0,0003.81,0013.09,0002.80
2023-09-21 22:10:00,SystemResetWarning,0827.4,5.00,000.00,027.8,026.7,000.0,036.1,029.6,17.4,0000.0,0003.81,0012.47,0002.79
2023-09-21 22:11:00,SystemResetWarning,0827.4,5.00,000.00,027.9,026.9,000.0,036.1,029.7,16.7,0000.0,0003.78,0010.76,0002.79
2023-09-21 22:12:00,SystemResetWarning,0827.4,4.99,000.00,027.9,026.8,000.0,036.1,029.7,16.8,0000.0,0003.80,0010.04,0002.79
2023-09-21 22:13:00,SystemResetWarning,0827.3,4.99,000.00,027.9,025.3,000.0,036.1,029.2,17.0,0000.0,0003.81,0010.88,0002.79
2023-09-21 22:14:00,SystemResetWarning,0827.2,5.01,000.00,027.7,024.1,000.0,036.0,028.9,17.3,0000.0,0003.79,0010.76,0002.76
2023-09-21 22:15:00,SystemResetWarning,0827.3,5.01,000.00,027.7,024.1,000.0,036.0,029.0,17.2,0000.0,0003.84,0010.82,0002.74
2023-09-21 22:16:00,SystemResetWarning,0827.3,4.99,000.00,027.6,024.4,000.0,036.0,029.0,16.9,0000.0,0003.85,0010.69,0002.74
2023-09-21 22:17:00,SystemResetWarning,0827.3,5.01,000.00,027.6,024.8,000.0,036.0,029.1,16.4,0000.0,0003.86,0010.83,0002.74
2023-09-21 22:18:00,SystemResetWarning,0827.3,4.99,000.00,027.6,025.2,000.0,036.0,029.2,16.4,0000.0,0003.81,0011.01,0002.71
2023-09-21 22:19:00,SystemResetWarning,0827.3,4.99,000.00,027.6,025.6,000.0,036.0,029.3,16.5,0000.0,0003.82,0010.96,0002.71
2023-09-21 22:20:00,SystemResetWarning,0827.3,5.00,000.00,027.7,026.0,000.0,036.0,029.3,15.7,0000.0,0003.79,0011.28,0002.70
2023-09-21 22:21:00,SystemResetWarning,0827.3,5.00,000.00,027.7,026.3,000.0,036.0,029.4,15.8,0000.0,0003.78,0011.83,0002.69
2023-09-21 22:22:00,SystemResetWarning,0827.2,5.01,000.00,027.8,026.5,000.0,036.0,029.5,15.5,0000.0,0003.77,0011.79,0002.68
2023-09-21 22:23:00,SystemResetWarning,0827.3,5.01,000.00,027.8,026.8,000.0,036.1,029.6,16.6,0000.0,0003.75,0012.01,0002.66
2023-09-21 22:24:00,SystemResetWarning,0827.3,5.00,000.00,027.9,026.9,000.0,036.1,029.7,17.2,0000.0,0003.74,0011.34,0002.64
2023-09-21 22:25:00,SystemResetWarning,0827.3,4.98,000.00,027.9,025.8,000.0,036.1,029.3,17.5,0000.0,0003.73,0011.39,0002.63
2023-09-21 22:26:00,SystemResetWarning,0827.2,5.00,000.00,027.7,024.3,000.0,036.0,028.9,17.5,0000.0,0003.63,0011.70,0002.61
2023-09-21 22:27:00,SystemResetWarning,0827.2,5.01,000.00,027.6,024.1,000.0,036.0,028.9,17.5,0000.0,0003.61,0012.15,0002.60
2023-09-21 22:28:00,SystemResetWarning,0827.3,5.01,000.00,027.6,024.3,000.0,036.0,028.9,18.0,0000.0,0003.57,0011.73,0002.59
2023-09-21 22:29:00,SystemResetWarning,0827.3,4.99,000.00,027.5,024.7,000.0,036.0,029.0,18.4,0000.0,0003.56,0011.82,0002.58
2023-09-21 22:30:00,SystemResetWarning,0827.3,5.01,000.00,027.6,025.2,000.0,036.0,029.1,18.2,0000.0,0003.57,0012.70,0002.56
2023-09-21 22:31:00,SystemResetWarning,0827.3,4.99,000.00,027.6,025.6,000.0,036.0,029.2,17.4,0000.0,0003.63,0013.13,0002.55
2023-09-21 22:32:00,SystemResetWarning,0827.3,4.99,000.00,027.6,025.9,000.0,036.0,029.3,16.6,0000.0,0003.65,0012.75,0002.56
2023-09-21 22:33:00,SystemResetWarning,0827.3,5.01,000.00,027.7,026.2,000.0,036.0,029.4,16.5,0000.0,0003.62,0014.09,0002.55
2023-09-21 22:34:00,SystemResetWarning,0827.3,5.01,000.00,027.7,026.5,000.0,036.0,029.5,16.5,0000.0,0003.61,0014.25,0002.53
2023-09-21 22:35:00,SystemResetWarning,0827.3,5.01,000.00,027.8,026.7,000.0,036.0,029.6,16.6,0000.0,0003.61,0014.94,0002.53
2023-09-21 22:36:00,SystemResetWarning,0827.3,4.99,000.00,027.8,026.9,000.0,036.1,029.7,16.7,0000.0,0003.58,0016.12,0002.55
2023-09-21 22:37:00,SystemResetWarning,0827.3,4.99,000.00,027.9,026.9,000.0,036.1,029.7,16.8,0000.0,0003.58,0016.20,0002.54
2023-09-21 22:38:00,SystemResetWarning,0827.3,4.99,000.00,027.9,025.5,000.0,036.1,029.3,16.7,0000.0,0003.58,0016.16,0002.53
2023-09-21 22:39:00,SystemResetWarning,0827.2,5.01,000.00,027.7,024.2,000.0,036.0,028.9,16.9,0000.0,0003.56,0016.50,0002.52
2023-09-21 22:40:00,SystemResetWarning,0827.2,5.01,000.00,027.6,024.1,000.0,036.0,028.9,16.9,0000.0,0003.55,0016.10,0002.52
2023-09-21 22:41:00,SystemResetWarning,0827.2,4.99,000.00,027.6,024.4,000.0,036.0,029.0,17.0,0000.0,0003.52,0016.23,0002.53
2023-09-21 22:42:00,SystemResetWarning,0827.2,4.99,000.00,027.6,024.9,000.0,036.0,029.1,17.0,0000.0,0003.43,0016.01,0002.52
2023-09-21 22:43:00,SystemResetWarning,0827.2,5.01,000.00,027.6,025.3,000.0,036.0,029.2,17.0,0000.0,0003.39,0015.67,0002.52
2023-09-21 22:44:00,SystemResetWarning,0827.2,5.00,000.00,027.6,025.7,000.0,036.0,029.3,17.3,0000.0,0003.40,0014.46,0002.52
2023-09-21 22:45:00,SystemResetWarning,0827.2,5.00,000.00,027.7,026.1,000.0,036.0,029.4,16.6,0000.0,0003.41,0014.59,0002.53
2023-09-21 22:46:00,SystemResetWarning,0827.2,5.00,000.00,027.7,026.3,000.0,036.0,029.5,16.9,0000.0,0003.38,0013.52,0002.53
2023-09-21 22:47:00,SystemResetWarning,0827.2,5.00,000.00,027.8,026.6,000.0,036.0,029.5,16.7,0000.0,0003.35,0012.11,0002.51
2023-09-21 22:48:00,SystemResetWarning,0827.2,4.99,000.00,027.8,026.8,000.0,036.1,029.6,16.4,0000.0,0003.36,0011.43,0002.51
2023-09-21 22:49:00,SystemResetWarning,0827.2,5.00,000.00,027.9,026.9,000.0,036.1,029.7,16.2,0000.0,0003.38,0010.95,0002.50
2023-09-21 22:50:00,SystemResetWarning,0827.2,5.00,000.00,027.9,027.1,000.0,036.1,029.8,16.1,0000.0,0003.41,0010.91,0002.49
2023-09-21 22:51:00,SystemResetWarning,0827.2,4.99,000.00,027.9,026.2,000.0,036.1,029.4,16.1,0000.0,0003.39,0011.13,0002.46
2023-09-21 22:52:00,SystemResetWarning,0827.2,5.00,000.00,027.8,024.4,000.0,036.1,029.0,16.4,0000.0,0003.38,0010.19,0002.45
2023-09-21 22:53:00,SystemResetWarning,0827.1,5.01,000.00,027.7,024.0,000.0,036.0,029.0,16.4,0000.0,0003.39,0008.94,0002.43
2023-09-21 22:54:00,SystemResetWarning,0827.2,5.02,000.00,027.6,024.3,000.0,036.0,029.0,16.4,0000.0,0003.35,0008.48,0002.39
2023-09-21 22:55:00,SystemResetWarning,0827.2,4.99,000.00,027.6,024.7,000.0,036.0,029.1,16.5,0000.0,0003.32,0008.28,0002.38
2023-09-21 22:56:00,SystemResetWarning,0827.2,5.00,000.00,027.6,025.1,000.0,036.0,029.2,16.5,0000.0,0003.26,0007.59,0002.35
2023-09-21 22:57:00,SystemResetWarning,0827.1,5.01,000.00,027.7,025.6,000.0,036.0,029.3,16.4,0000.0,0003.25,0007.51,0002.33
2023-09-21 22:58:00,SystemResetWarning,0827.2,5.00,000.00,027.7,025.9,000.0,036.0,029.4,16.3,0000.0,0003.22,0008.15,0002.31
2023-09-21 22:59:00,SystemResetWarning,0827.2,4.99,000.00,027.7,026.2,000.0,036.1,029.5,16.4,0000.0,0003.18,0008.28,0002.29
